Date String (YYYY-MM-DD hh:mm:ss) UTC,Instrument flags,Ambient pressure (hPa),Sample flow (lpm),Bypass flow (lpm),Sample temperature (°C),Ambient temperature (°C),ASC tube jacket temperature (°C),LED temperature (°C),Box temperature (°C),Sample RH (%),Mass concentration (μg/m³),Mass concentration (μg/m³)
DateTimeUTC,F1_M11,P_M11,Q1_M11,Q2_M11,T1_M11,T2_M11,T3_M11,T4_M11,T5_M11,U1_M11,X2_M11,X0_M11
2021-08-19 02:00:00,,0822.6,5.01,0.00,29.0,25.6,00.0,38.1,30.4,25.5,0013.98,0021.32
2021-08-19 02:01:00,,0822.6,5.00,0.00,28.9,26.0,00.0,38.1,30.5,25.6,0014.04,0021.60
2021-08-19 02:02:00,,0822.6,5.00,0.00,28.9,26.5,00.0,38.0,30.6,25.8,0014.08,0022.21
2021-08-19 02:03:00,,0822.6,4.99,0.00,28.9,26.9,00.0,38.0,30.7,25.9,0014.08,0022.92
2021-08-19 02:04:00,,0822.6,4.98,0.00,29.0,27.3,00.0,38.0,30.8,25.9,0014.15,0023.68
2021-08-19 02:05:00,,0822.6,5.00,0.00,29.0,27.6,00.0,38.0,30.9,26.0,0014.18,0024.72
2021-08-19 02:06:00,,0822.6,5.00,0.00,29.1,27.9,00.0,38.0,31.0,25.9,0014.20,0024.45
2021-08-19 02:07:00,,0822.6,5.00,0.00,29.2,28.1,00.0,38.1,31.1,25.9,0014.21,0024.68
2021-08-19 02:08:00,,0822.7,4.99,0.00,29.2,28.3,00.0,38.1,31.2,25.9,0014.26,0025.15
2021-08-19 02:09:00,,0822.6,4.99,0.00,29.3,28.5,00.0,38.1,31.3,26.0,0014.36,0026.05
2021-08-19 02:10:00,,0822.7,5.01,0.00,29.3,28.5,00.0,38.2,31.3,25.9,0014.41,0026.04
2021-08-19 02:11:00,,0822.7,5.00,0.00,29.3,26.8,00.0,38.2,30.8,26.0,0014.41,0026.32
2021-08-19 02:12:00,,0822.7,5.00,0.00,29.1,25.5,00.0,38.2,30.3,26.1,0014.47,0026.42
2021-08-19 02:13:00,,0822.7,5.00,0.00,29.0,25.6,00.0,38.1,30.4,26.2,0014.52,0025.97
2021-08-19 02:14:00,,0822.7,5.00,0.00,28.9,26.1,00.0,38.1,30.5,26.3,0014.63,0025.45
2021-08-19 02:15:00,,0822.6,5.00,0.00,28.9,26.5,00.0,38.1,30.6,26.3,0014.76,0024.99
2021-08-19 02:16:00,,0822.7,4.99,0.00,29.0,27.0,00.0,38.1,30.8,26.2,0014.92,0023.71
2021-08-19 02:17:00,,0822.6,5.01,0.00,29.0,27.3,00.0,38.1,30.9,26.2,0015.07,0024.56
2021-08-19 02:18:00,,0822.7,4.99,0.00,29.1,27.6,00.0,38.1,30.9,26.2,0015.21,0025.05
2021-08-19 02:19:00,,0822.7,5.01,0.00,29.1,27.9,00.0,38.1,31.0,26.2,0015.40,0026.02
2021-08-19 02:20:00,,0822.8,5.00,0.00,29.2,28.1,00.0,38.1,31.1,26.2,0015.54,0026.16
2021-08-19 02:21:00,,0822.8,4.99,0.00,29.2,28.3,00.0,38.1,31.2,26.0,0015.72,0027.02
2021-08-19 02:22:00,,0822.8,5.01,0.00,29.3,28.5,00.0,38.2,31.3,25.9,0015.91,0026.57
2021-08-19 02:23:00,,0822.9,4.99,0.00,29.4,28.2,00.0,38.2,31.2,25.8,0016.11,0026.56
2021-08-19 02:24:00,,0823.0,5.01,0.00,29.3,26.5,00.0,38.2,30.7,25.9,0016.25,0026.55
2021-08-19 02:25:00,,0823.0,5.00,0.00,29.1,25.4,00.0,38.2,30.4,26.1,0016.43,0027.04
2021-08-19 02:26:00,,0823.0,4.99,0.00,29.0,25.7,00.0,38.2,30.4,25.9,0016.54,0028.11
2021-08-19 02:27:00,,0823.0,5.01,0.00,28.9,26.1,00.0,38.1,30.5,25.4,0016.60,0028.16
2021-08-19 02:28:00,,0822.9,5.00,0.00,28.9,26.6,00.0,38.1,30.7,25.5,0016.66,0027.61
2021-08-19 02:29:00,,0822.9,4.98,0.00,29.0,27.0,00.0,38.1,30.8,25.5,0016.73,0027.14
2021-08-19 02:30:00,,0823.0,5.01,0.00,29.0,27.4,00.0,38.1,30.9,25.7,0016.79,0026.46
2021-08-19 02:31:00,,0822.9,4.99,0.00,29.1,27.6,00.0,38.1,31.0,25.6,0016.81,0025.78
2021-08-19 02:32:00,,0823.0,5.00,0.00,29.1,27.9,00.0,38.1,31.0,25.9,0016.78,0025.05
2021-08-19 02:33:00,,0822.9,5.00,0.00,29.2,28.1,00.0,38.1,31.1,25.7,0016.84,0025.18
2021-08-19 02:34:00,,0823.0,5.00,0.00,29.2,28.3,00.0,38.2,31.2,25.4,0016.90,0025.60
2021-08-19 02:35:00,,0823.0,5.00,0.00,29.3,28.5,00.0,38.2,31.2,24.7,0016.97,0025.65
2021-08-19 02:36:00,,0823.0,5.00,0.00,29.3,27.9,00.0,38.2,31.1,24.4,0016.92,0025.19
2021-08-19 02:37:00,,0823.0,5.01,0.00,29.2,26.1,00.0,38.2,30.6,24.6,0016.88,0024.05
2021-08-19 02:38:00,,0822.9,5.00,0.00,29.1,25.4,00.0,38.2,30.4,25.0,0016.92,0024.16
2021-08-19 02:39:00,,0823.0,5.01,0.00,29.0,25.8,00.0,38.1,30.5,25.3,0016.96,0024.67
2021-08-19 02:40:00,,0823.0,4.99,0.00,28.9,26.2,00.0,38.1,30.6,25.4,0016.93,0024.51
2021-08-19 02:41:00,,0822.9,5.00,0.00,28.9,26.7,00.0,38.1,30.7,25.2,0016.94,0024.35
2021-08-19 02:42:00,,0822.9,4.99,0.00,29.0,27.1,00.0,38.1,30.8,25.4,0016.98,0024.11
2021-08-19 02:43:00,,0823.0,5.01,0.00,29.0,27.4,00.0,38.1,30.9,25.3,0017.05,0024.17
2021-08-19 02:44:00,,0823.1,5.01,0.00,29.1,27.7,00.0,38.1,30.9,25.1,0017.03,0024.02
2021-08-19 02:45:00,,0823.0,4.99,0.00,29.1,27.9,00.0,38.1,31.0,24.8,0017.01,0023.57
2021-08-19 02:46:00,,0823.1,5.00,0.00,29.2,28.1,00.0,38.1,31.1,24.7,0017.03,0024.19
2021-08-19 02:47:00,,0823.1,5.00,0.00,29.2,28.3,00.0,38.2,31.2,24.9,0017.06,0024.73
2021-08-19 02:48:00,,0823.1,5.01,0.00,29.3,28.4,00.0,38.2,31.2,24.9,0017.07,0024.69
2021-08-19 02:49:00,,0823.1,5.00,0.00,29.3,28.3,00.0,38.2,31.2,24.6,0017.05,0024.83
2021-08-19 02:50:00,,0823.1,4.99,0.00,29.3,26.7,00.0,38.2,30.8,24.3,0017.04,0024.51
2021-08-19 02:51:00,,0823.1,5.00,0.00,29.1,25.4,00.0,38.2,30.3,24.6,0016.99,0024.10
2021-08-19 02:52:00,,0823.1,5.00,0.00,29.0,25.6,00.0,38.1,30.4,24.7,0016.92,0024.48
2021-08-19 02:53:00,,0823.1,4.99,0.00,28.9,26.0,00.0,38.1,30.5,24.8,0016.91,0024.55
2021-08-19 02:54:00,,0823.1,5.00,0.00,28.9,26.5,00.0,38.1,30.6,24.6,0016.85,0024.66
2021-08-19 02:55:00,,0823.1,5.01,0.00,28.9,26.9,00.0,38.1,30.7,24.7,0016.89,0025.03
2021-08-19 02:56:00,,0823.2,4.98,0.00,29.0,27.3,00.0,38.1,30.8,24.8,0016.91,0025.20
2021-08-19 02:57:00,,0823.2,5.01,0.00,29.0,27.6,00.0,38.1,30.9,24.6,0016.86,0025.18
2021-08-19 02:58:00,,0823.2,4.99,0.00,29.1,27.8,00.0,38.1,31.0,24.4,0016.80,0024.53
2021-08-19 02:59:00,,0823.3,4.99,0.00,29.1,28.0,00.0,38.1,31.1,24.4,0016.79,0024.67
